User: anonymous
Location: Caltech
(34.1382°N, 118.1253°W)
Time: 05:21:39
(UTC-07:00)
Language:

Gurwin Techsat 1B - Orbit

View from above orbital plane
View from above orbital plane
View from above satellite
View from above satellite

Ground track
Ground track

The orbit data is extracted from the following two-line orbital elements,

1 25397U 98043D   14209.14237451  .00000041  00000-0  36497-4 0  4031
2 25397 098.4718 165.6095 0001755 147.7942 278.5539 14.23451751833690
Epoch (UTC): 28 July 2014 03:25:01
Eccentricity: 0.0001755
inclination: 98.4718°
perigee height: 812 km
apogee height: 815 km
right ascension of ascending node: 165.6095°
argument of perigee: 147.7942°
revolutions per day: 14.23451751
mean anomaly at epoch: 278.5539°
orbit number at epoch: 83369

The dashed part of the orbit path shows where the satellite is in the earth's shadow,  

DLR